Location: Invercargill
(46.4000°S, 168.3500°E)
Time: 19:05:17
(UTC+12:00)

Genesis I - Pass Details

Date: 14 May 2021
Orbit: 479 x 540 km, 64.5° (Epoch: 14 June)

Event Time Altitude Azimuth Distance (km) Brightness Sun altitude
Rises 18:51:09 0° 333° (NNW) 2,658 7.4 -14.8°
Reaches altitude 10° 18:53:22 10° 336° (NNW) 1,767 6.4 -15.2°
Maximum altitude 18:57:16 63° 56° (ENE) 588 3.2 -15.8°
Enters shadow 18:59:04 30° 128° (SE) 963 4.1 -16.1°
